Location: Gleizolles
(44.4833°N, 6.7667°E)
Time: 00:55:30
(UTC+00:00)

SPOT 3 Rocket - Pass Details

Date: 09 April 2020
Orbit: 779 x 795 km, 98.8° (Epoch: 02 June)

Event Time Altitude Azimuth Distance (km) Brightness Sun altitude
Exits shadow 19:22:45 10° 155° (SSE) 2,352 5.6 -13.0°
Maximum altitude 19:27:55 69° 72° (ENE) 847 3.5 -13.8°
Drops below altitude 10° 19:33:06 10° 351° (N) 2,362 6.5 -14.6°
Sets 19:35:26 0° 349° (NNW) 3,293 7.4 -15.0°
